DateTimeUTC,F1_A11,F1_S11,BsB_S11,BsG_S11,BsR_S11,BbsB_S11,BbsG_S11,BbsR_S11,BaB_A11,BaG_A11,BaR_A11,T_S11,U_S11,P_S11,T1_A11
2020-04-28T00:00:00Z,00000380,20000600,,,,,,,,,,25.0,02.1,0665.9,30.9
2020-04-28T00:01:00Z,00000380,20000600,,,,,,,,,,25.0,02.1,0665.9,30.9
2020-04-28T00:02:00Z,00000380,20000600,,,,,,,,,,25.0,02.0,0665.9,30.9
2020-04-28T00:03:00Z,00000380,60000600,,,,,,,,,,25.1,01.9,0665.9,30.9
2020-04-28T00:04:00Z,00000380,40000600,0002.42,0001.01,0000.50,0000.04,-000.08,0000.17,-000.14,-000.05,-000.18,24.9,02.0,0666.9,30.9
2020-04-28T00:05:00Z,00000380,00000600,0000.36,0000.69,0000.18,-000.42,0000.66,0000.15,0000.21,0000.15,0000.15,24.8,02.0,0666.9,30.9
2020-04-28T00:06:00Z,00000380,00000600,0000.24,0000.27,0000.89,0000.44,0000.26,-000.03,0000.08,0000.05,0000.03,24.8,02.0,0666.9,30.9
2020-04-28T00:07:00Z,00000380,00000600,0001.16,0000.53,0000.93,0000.48,-000.08,0000.02,0000.02,0000.05,-000.01,24.8,02.1,0666.9,30.9
2020-04-28T00:08:00Z,00000380,00000600,0000.63,0000.32,0000.40,-000.31,0000.07,0000.12,-000.01,0000.01,0000.16,24.8,02.1,0666.9,30.9
2020-04-28T00:09:00Z,00000380,00000600,0001.79,0000.90,0000.31,0000.34,0000.27,0000.09,0000.02,-000.07,-000.04,24.8,02.0,0666.9,30.9
2020-04-28T00:10:00Z,00000380,00000600,0000.85,0000.90,0000.97,-000.03,0000.30,0000.37,0000.13,0000.19,0000.01,24.8,02.0,0666.9,30.9
2020-04-28T00:11:00Z,00000380,00000600,0001.55,0000.44,0000.30,0000.42,0000.38,0000.21,0000.04,0000.01,-000.02,24.8,02.0,0666.9,30.9
2020-04-28T00:12:00Z,00000380,00000600,0001.24,0000.93,0000.33,0000.23,0000.54,0000.03,0000.02,0000.09,0000.10,24.7,02.0,0666.9,30.9
2020-04-28T00:13:00Z,00000380,00000600,0000.80,0000.46,0001.15,0000.42,0000.53,0000.33,0000.10,0000.04,0000.22,24.7,02.1,0666.9,30.9
2020-04-28T00:14:00Z,00000380,00000600,0002.01,0000.82,0000.98,0000.04,0000.07,0000.08,0000.04,0000.15,0000.02,24.7,02.1,0666.9,30.9
2020-04-28T00:15:00Z,00000380,00000600,0001.72,0000.50,0000.49,0000.18,0000.04,0000.40,0000.24,-000.00,-000.04,24.7,02.1,0666.9,30.9
2020-04-28T00:16:00Z,00000380,00000600,0000.69,0000.91,0000.76,0000.68,0000.22,0000.24,-000.05,0000.25,0000.12,24.7,02.0,0666.9,30.9
2020-04-28T00:17:00Z,00000380,00000600,0001.75,0001.03,0000.94,0001.90,0000.29,0000.28,-000.01,-000.02,0000.03,24.7,02.1,0666.9,30.9
2020-04-28T00:18:00Z,00000380,00000600,0001.39,0000.24,0001.14,-000.06,0000.07,-000.13,0000.03,0000.01,-000.11,24.7,02.1,0666.9,30.9
2020-04-28T00:19:00Z,00000380,00000600,0001.62,0000.69,0000.38,0000.12,0000.69,-000.01,0000.20,0000.14,0000.26,24.7,02.0,0667.0,30.9
2020-04-28T00:20:00Z,00000380,00000600,0001.63,0001.12,0001.21,0000.80,0000.55,0000.42,-000.05,0000.01,-000.02,24.7,02.1,0667.0,30.9
2020-04-28T00:21:00Z,00000380,00000600,0001.37,0000.87,0000.56,0000.06,0000.38,0000.26,0000.11,0000.03,0000.08,24.7,02.1,0667.0,30.9
2020-04-28T00:22:00Z,00000380,00000600,0000.99,0000.69,0001.25,0000.16,0000.47,0000.29,0000.04,-000.00,-000.02,24.7,02.1,0667.0,30.9
2020-04-28T00:23:00Z,00000380,00000600,0000.19,0000.89,0000.74,0001.09,0000.06,0000.51,0000.05,-000.01,0000.13,24.7,02.0,0667.0,30.9
2020-04-28T00:24:00Z,00000380,00000600,0001.41,0000.31,0000.36,0000.33,0000.27,-000.04,0000.10,0000.15,-000.11,24.7,02.0,0667.0,30.9
2020-04-28T00:25:00Z,00000380,00000600,-000.09,0002.01,0000.20,-000.27,0000.31,0000.25,-000.08,-000.03,0000.10,24.7,02.0,0666.9,30.9
2020-04-28T00:26:00Z,00000380,00000600,0000.84,0000.54,0000.25,0000.13,0000.33,0000.25,0000.18,0000.07,-000.02,24.7,02.1,0667.0,30.9
2020-04-28T00:27:00Z,00000380,00000600,0000.19,0001.17,0000.91,-000.19,0000.06,0000.45,0000.11,0000.01,0000.09,24.7,02.0,0667.0,30.9
2020-04-28T00:28:00Z,00000380,00000600,0001.51,0000.92,0000.68,0000.97,0000.03,-000.10,-000.07,0000.04,-000.09,24.7,02.0,0667.0,30.9
2020-04-28T00:29:00Z,00000380,00000600,0001.54,0001.09,0000.52,-000.26,0000.06,0000.13,0000.06,0000.04,0000.08,24.7,02.0,0667.0,30.9
2020-04-28T00:30:00Z,00000380,00000600,0001.32,0000.70,0000.14,0001.12,0000.36,0000.67,0000.08,0000.10,0000.04,24.7,02.0,0667.0,30.9
2020-04-28T00:31:00Z,00000380,00000600,0001.40,0001.03,0000.45,-000.52,-000.02,0000.28,-000.08,-000.06,0000.06,24.7,02.0,0667.0,30.9
2020-04-28T00:32:00Z,00000380,00000600,0001.11,0000.70,0000.41,0000.22,0000.17,-000.13,0000.06,0000.17,0000.10,24.7,02.0,0667.0,30.9
2020-04-28T00:33:00Z,00000380,00000600,0000.72,0000.84,0000.98,0000.40,-000.08,0000.39,0000.18,0000.12,-000.07,24.7,02.0,0667.0,30.9
2020-04-28T00:34:00Z,00000380,00000600,0001.08,0000.75,0000.46,0000.54,0000.42,-000.01,0000.05,-000.10,0000.14,24.7,02.0,0667.0,30.9
2020-04-28T00:35:00Z,00000380,00000600,0000.48,0000.99,0000.88,0000.90,0000.07,0000.23,0000.15,0000.10,-000.06,24.7,02.0,0667.0,30.9
2020-04-28T00:36:00Z,00000380,00000600,0001.34,0000.29,0000.73,0000.08,0000.43,0000.12,-000.09,-000.01,-000.01,24.7,02.0,0667.0,30.9
2020-04-28T00:37:00Z,00000380,00000600,0001.77,0001.21,0000.52,0001.01,0000.40,0000.34,-000.00,0000.12,0000.08,24.7,01.9,0667.0,30.9
2020-04-28T00:38:00Z,00000380,00000600,0001.28,0000.53,0000.50,-000.20,0000.40,0000.19,0000.04,0000.04,0000.13,24.7,01.9,0667.0,30.9
2020-04-28T00:39:00Z,00000380,00000600,0001.03,0000.76,0000.10,0000.82,0000.14,0000.05,0000.07,-000.04,-000.01,24.7,01.9,0667.0,30.9
2020-04-28T00:40:00Z,00000380,00000600,0001.10,0001.04,0000.63,0000.76,0000.53,0000.29,-000.02,-000.03,-000.06,24.7,01.8,0667.0,30.9
2020-04-28T00:41:00Z,00000380,00000600,0001.13,0001.18,0000.37,-000.79,0000.30,0000.08,-000.10,0000.06,-000.10,24.7,01.9,0667.0,30.9
2020-04-28T00:42:00Z,00000380,00000600,0000.37,0000.82,0000.68,-000.81,0000.27,0000.15,0000.11,-000.04,0000.07,24.7,01.8,0667.0,30.9
2020-04-28T00:43:00Z,00000380,00000600,0000.62,0001.14,0001.17,0000.11,-000.04,0000.52,0000.07,0000.00,0000.09,24.7,01.8,0667.1,30.9
2020-04-28T00:44:00Z,00000380,00000600,0000.76,0000.77,0000.31,0000.47,-000.03,0000.52,0000.08,-000.07,-000.10,24.7,01.8,0667.0,30.9
2020-04-28T00:45:00Z,00000380,00000600,0000.70,0001.01,0000.77,0000.19,0000.47,0000.60,-000.09,0000.06,0000.02,24.7,01.7,0667.1,30.9
2020-04-28T00:46:00Z,00000380,00000600,0001.28,0000.36,0000.92,0000.56,0000.18,0000.18,0000.04,0000.06,-000.11,24.7,01.7,0667.1,30.9
2020-04-28T00:47:00Z,00000380,00000600,0001.38,0000.60,0001.80,0000.89,-000.33,-000.05,0000.07,0000.12,0000.17,24.7,01.7,0667.1,30.9
2020-04-28T00:48:00Z,00000380,00000600,0000.62,0000.71,0000.47,0000.60,0000.17,0000.17,0000.09,0000.04,-000.06,24.7,01.8,0667.1,30.9
2020-04-28T00:49:00Z,00000380,00000600,0000.88,0000.81,0001.12,0000.46,-000.10,0000.19,0000.01,-000.10,0000.04,24.7,01.6,0667.1,30.9
2020-04-28T00:50:00Z,00000380,00000600,0000.64,0001.60,0000.91,0000.23,0000.14,0000.44,0000.07,0000.10,0000.13,24.7,01.6,0667.1,31.0
2020-04-28T00:51:00Z,00000380,00000600,0000.87,0000.79,-000.01,0000.04,0000.24,-000.22,0000.05,0000.11,-000.04,24.7,01.6,0667.1,30.9
2020-04-28T00:52:00Z,00000380,00000600,0000.41,0001.32,0000.73,-000.14,0000.69,-000.05,-000.04,-000.07,-000.05,24.7,01.6,0667.1,30.9
2020-04-28T00:53:00Z,00000380,00000600,0001.36,0000.11,0001.16,0000.30,0000.45,0000.42,-000.02,0000.14,0000.04,24.7,01.6,0667.1,30.9
2020-04-28T00:54:00Z,00000380,00000600,0000.76,0000.55,0000.63,0000.48,0000.07,0000.06,0000.10,0000.04,-000.03,24.7,01.6,0667.1,30.9
2020-04-28T00:55:00Z,00000380,00000600,0001.39,0000.34,0000.81,0000.08,0000.18,0000.58,0000.08,-000.08,0000.14,24.7,01.5,0667.1,30.9
2020-04-28T00:56:00Z,00000380,00000600,0001.76,0001.43,0000.08,0000.63,-000.33,-000.08,0000.00,0000.05,-000.13,24.7,01.5,0667.1,30.9
2020-04-28T00:57:00Z,00000380,40000600,,,,,,,,,,24.7,01.5,0667.0,30.9
2020-04-28T00:58:00Z,00000380,60000600,,,,,,,,,,24.8,01.6,0666.0,30.9
2020-04-28T00:59:00Z,00000380,20000600,,,,,,,,,,24.9,01.5,0666.0,30.9
2020-04-28T01:00:00Z,00000380,20000600,,,,,,,,,,24.9,01.5,0666.0,30.9
2020-04-28T01:01:00Z,00000380,20000600,,,,,,,,,,25.0,01.4,0666.0,30.9
2020-04-28T01:02:00Z,00000380,20000600,,,,,,,,,,25.0,01.3,0666.0,31.0
2020-04-28T01:03:00Z,00000380,60000600,,,,,,,,,,25.0,01.3,0666.0,30.9
2020-04-28T01:04:00Z,00000380,41000600,0001.37,0000.65,0000.34,0000.69,0000.42,0000.03,0000.11,-000.07,-000.01,24.8,01.3,0666.9,30.9
2020-04-28T01:05:00Z,00000380,00000600,0000.86,0000.17,0000.66,-000.06,-000.09,-000.12,0000.03,-000.00,0000.01,24.8,01.3,0667.0,30.9
2020-04-28T01:06:00Z,00000380,00000600,0001.16,0000.63,-000.04,-000.04,0000.32,0000.12,0000.13,0000.18,-000.02,24.7,01.3,0667.0,30.9
2020-04-28T01:07:00Z,00000380,00000600,0001.70,0000.66,0000.29,0000.10,0000.20,-000.04,-000.17,-000.02,0000.28,24.7,01.3,0667.0,30.9
2020-04-28T01:08:00Z,00000380,00000600,0001.19,0000.67,0000.70,0000.08,0000.45,-000.03,0000.22,0000.15,-000.02,24.7,01.4,0667.0,30.9
2020-04-28T01:09:00Z,00000380,00000600,0001.32,0000.86,0000.15,0000.17,0000.36,-000.26,0000.07,-000.15,-000.10,24.7,01.4,0667.0,30.9
2020-04-28T01:10:00Z,00000380,00000600,-000.46,0000.92,0000.80,-000.14,0000.25,-000.39,-000.09,-000.01,0000.04,24.7,01.3,0667.0,30.9
2020-04-28T01:11:00Z,00000380,00000600,0001.75,0000.56,0000.08,0000.12,0000.18,-000.03,0000.03,0000.13,0000.03,24.7,01.4,0667.0,30.9
2020-04-28T01:12:00Z,00000380,01000600,0000.39,0000.38,0000.37,-000.95,0000.30,0000.06,0000.05,0000.14,0000.14,24.7,01.3,0667.0,30.9
2020-04-28T01:13:00Z,00000380,00000600,0000.60,0001.00,0000.41,0000.29,0000.43,0000.16,0000.23,0000.19,-000.01,24.7,01.3,0667.0,30.9
2020-04-28T01:14:00Z,00000380,00000600,0000.08,0000.89,0000.74,0000.94,-000.06,0000.51,0000.08,-000.01,0000.07,24.7,01.3,0667.0,30.9
2020-04-28T01:15:00Z,00000380,00000600,0001.63,-000.05,0000.67,0000.23,0000.15,0000.17,0000.01,0000.13,0000.13,24.7,01.4,0667.0,30.9
2020-04-28T01:16:00Z,00000380,00000600,-000.40,0001.09,0001.12,-000.52,0000.18,0000.15,0000.15,-000.08,0000.00,24.7,01.4,0667.0,30.9
2020-04-28T01:17:00Z,00000380,00000600,0000.84,0000.95,0001.12,0000.84,0000.43,0000.23,-000.06,0000.12,-000.06,24.7,01.4,0666.9,30.9
2020-04-28T01:18:00Z,00000380,01000600,0000.31,0001.33,0000.88,-000.42,0000.76,0000.41,0000.05,0000.03,0000.05,24.7,01.3,0666.9,30.9
2020-04-28T01:19:00Z,00000380,00000600,0001.09,-000.05,0000.68,0000.78,0000.24,-000.25,0000.22,0000.23,-000.02,24.6,01.3,0666.9,30.9
2020-04-28T01:20:00Z,00000380,00000600,0000.70,0001.07,0000.11,-000.32,-000.15,-000.21,0000.10,-000.05,0000.13,24.6,01.3,0666.9,30.9
2020-04-28T01:21:00Z,00000380,00000600,0000.68,0001.09,0000.55,0000.63,0000.19,-000.05,-000.19,-000.10,-000.03,24.6,01.4,0666.9,30.9
2020-04-28T01:22:00Z,00000380,00000600,0000.20,0000.63,0000.17,-001.16,0000.62,0000.45,0000.06,0000.04,0000.20,24.6,01.4,0666.9,30.9
2020-04-28T01:23:00Z,00000380,00000600,-000.12,0000.48,0000.64,-000.40,0000.37,0000.11,0000.24,0000.09,-000.06,24.6,01.3,0666.9,30.9
2020-04-28T01:24:00Z,00000380,00000600,-000.04,0000.97,0000.15,-000.48,0000.48,-000.14,-000.09,0000.08,0000.03,24.6,01.3,0666.9,30.9
2020-04-28T01:25:00Z,00000380,00000600,0001.91,0000.53,0000.35,0000.15,0000.48,-000.12,-000.00,-000.07,-000.03,24.6,01.4,0666.9,30.9
2020-04-28T01:26:00Z,00000380,00000600,0000.09,0000.64,0000.44,-000.01,-000.36,0000.25,0000.15,0000.10,-000.08,24.6,01.3,0666.9,30.9
2020-04-28T01:27:00Z,00000380,01000600,0001.42,0000.24,0000.95,-000.22,0000.41,-000.04,-000.03,-000.02,-000.02,24.6,01.3,0666.9,30.9
2020-04-28T01:28:00Z,00000380,01000600,0000.38,-000.15,0000.30,-000.39,0000.02,0000.17,0000.05,0000.03,0000.07,24.6,01.3,0666.9,30.9
2020-04-28T01:29:00Z,00000380,01000600,-000.49,0000.49,0000.72,-000.79,0000.23,0000.15,-000.04,0000.04,-000.06,24.6,01.2,0666.9,30.9
2020-04-28T01:30:00Z,00000380,01000600,0000.31,0000.28,0000.42,0000.64,-000.22,-000.42,0000.19,0000.14,0000.18,24.6,01.2,0666.9,30.9
2020-04-28T01:31:00Z,00000380,01000600,0000.55,0000.13,0000.42,-001.04,0000.21,0000.08,-000.09,-000.09,-000.01,24.6,01.2,0666.9,30.9
2020-04-28T01:32:00Z,00000380,01000600,0001.40,0000.86,0000.37,-000.36,0000.23,0000.16,0000.08,0000.01,-000.09,24.6,01.2,0666.9,30.9
2020-04-28T01:33:00Z,00000380,01000600,0000.22,0000.91,0000.62,-000.30,0000.14,0000.27,0000.04,-000.07,-000.17,24.6,01.1,0666.9,30.9
2020-04-28T01:34:00Z,00000380,01000600,0000.90,0000.73,0000.53,0000.28,0000.19,-000.13,0000.03,0000.14,0000.08,24.5,01.2,0666.9,30.9
2020-04-28T01:35:00Z,00000380,01000600,-000.10,0000.78,0000.63,0000.45,0000.51,-000.35,0000.00,0000.04,0000.06,24.6,01.2,0666.9,30.9
2020-04-28T01:36:00Z,00000380,01000600,0001.26,0000.46,0000.53,0000.80,0000.52,0000.08,0000.07,-000.04,0000.15,24.6,01.1,0667.0,30.9
2020-04-28T01:37:00Z,00000380,01000600,0000.47,0001.00,0000.42,0000.44,0000.58,-000.42,-000.02,0000.02,-000.04,24.5,01.1,0666.9,30.9
2020-04-28T01:38:00Z,00000380,01000600,-000.13,0000.79,0000.57,-000.15,0000.39,0000.21,0000.18,0000.16,0000.16,24.5,01.2,0666.9,30.9
2020-04-28T01:39:00Z,00000380,01000600,0000.29,0000.09,0000.43,0000.03,-000.12,0000.22,-000.04,0000.04,-000.08,24.5,01.1,0666.9,30.9
2020-04-28T01:40:00Z,00000380,01000600,0000.46,0000.57,0000.82,0000.28,0000.02,0000.17,0000.21,0000.06,0000.10,24.5,01.2,0666.9,30.9
2020-04-28T01:41:00Z,00000380,01000600,-000.36,0000.89,0000.41,0000.77,0000.04,-000.13,0000.09,0000.18,0000.08,24.5,01.2,0666.9,30.9
2020-04-28T01:42:00Z,00000380,01000600,0001.25,0000.91,0000.23,0000.46,0000.32,-000.01,0000.19,0000.08,0000.32,24.5,01.2,0666.9,30.9
2020-04-28T01:43:00Z,00000380,01000600,0000.87,0000.95,0000.43,0000.32,0000.46,-000.19,0000.05,0000.05,-000.11,24.6,01.2,0666.9,30.9
2020-04-28T01:44:00Z,00000380,01000600,0000.84,0000.61,0000.53,-000.02,0000.19,0000.22,0000.21,0000.43,0000.27,24.6,01.3,0666.9,30.9
2020-04-28T01:45:00Z,00000380,00000600,0000.33,0000.51,0000.33,-000.14,0000.41,-000.20,0000.17,-000.04,0000.06,24.5,01.3,0666.9,30.9
2020-04-28T01:46:00Z,00000380,01000600,0000.97,0000.56,0000.73,-000.58,0000.30,0000.19,-000.00,0000.07,0000.23,24.5,01.3,0666.9,30.9
2020-04-28T01:47:00Z,00000380,01000600,0001.18,0000.07,0001.24,0000.07,0000.28,0000.24,0000.15,0000.04,-000.03,24.5,01.4,0666.8,30.9
2020-04-28T01:48:00Z,00000380,00000600,0000.89,0000.66,-000.06,-000.21,0000.14,-000.19,0000.16,0000.28,0000.10,24.5,01.5,0666.9,30.9
2020-04-28T01:49:00Z,00000380,00000600,0000.50,0000.18,0000.37,-000.61,0000.45,0000.16,0000.14,0000.25,0000.09,24.5,01.5,0666.8,30.9
2020-04-28T01:50:00Z,00000380,00000600,-001.74,0000.66,0000.66,-000.09,0000.47,0000.06,0000.11,0000.26,0000.27,24.5,01.5,0666.9,30.9
2020-04-28T01:51:00Z,00000380,00000600,0001.36,0000.88,0000.50,-000.77,0000.28,-000.22,0000.14,-000.10,-000.04,24.5,01.5,0666.9,30.9
2020-04-28T01:52:00Z,00000380,00000600,0001.09,0000.69,0000.39,-000.31,0000.27,0000.03,-000.05,-000.01,0000.08,24.5,01.6,0666.9,30.9
2020-04-28T01:53:00Z,00000380,00000600,0000.12,0000.92,0000.21,0000.96,0000.21,0000.25,0000.28,0000.17,0000.05,24.5,01.7,0666.8,30.9
2020-04-28T01:54:00Z,00000380,00000600,0001.39,0000.88,0000.52,0000.66,0000.43,0000.20,0000.19,0000.11,0000.20,24.5,01.7,0666.8,30.9
2020-04-28T01:55:00Z,00000380,00000600,0000.03,0000.04,0000.61,0000.46,0000.32,0000.05,0000.24,0000.22,0000.23,24.5,01.7,0666.7,30.9
2020-04-28T01:56:00Z,00000380,00000600,-000.73,0001.01,0000.08,0000.10,-000.02,0000.15,0000.14,0000.21,-000.04,24.5,01.8,0666.8,30.9
2020-04-28T01:57:00Z,00000380,40000600,,,,,,,,,,24.5,01.7,0666.7,30.9
2020-04-28T01:58:00Z,00000380,60000600,,,,,,,,,,24.6,01.6,0665.8,30.9
2020-04-28T01:59:00Z,00000380,20000600,,,,,,,,,,24.7,01.7,0665.8,30.9
2020-04-28T02:00:00Z,00000380,20000600,,,,,,,,,,24.7,01.7,0665.8,30.9
2020-04-28T02:01:00Z,00000380,20000600,,,,,,,,,,24.7,01.7,0665.8,30.9
2020-04-28T02:02:00Z,00000380,20000600,,,,,,,,,,24.7,01.7,0665.8,30.9
2020-04-28T02:03:00Z,00000380,60000600,,,,,,,,,,24.7,01.7,0665.8,30.9
2020-04-28T02:04:00Z,00000380,40000600,0000.70,-000.20,0000.56,-000.13,-000.06,0000.08,0000.03,0000.21,0000.04,24.5,01.8,0666.7,30.9
2020-04-28T02:05:00Z,00000380,00000600,0000.47,0001.01,0000.40,-000.12,0000.54,-000.04,0000.21,0000.16,0000.20,24.5,01.9,0666.8,30.9
2020-04-28T02:06:00Z,00000380,00000600,0000.39,0000.51,-000.51,0000.47,0000.76,-000.28,0000.14,-000.03,0000.12,24.5,02.0,0666.8,30.9
2020-04-28T02:07:00Z,00000380,00000600,0001.36,0000.45,0000.70,-000.08,0000.05,0000.04,0000.04,-000.04,0000.01,24.4,01.9,0666.8,30.9
2020-04-28T02:08:00Z,00000380,00000600,0000.81,0001.12,-000.03,0000.14,0000.15,0000.24,0000.12,0000.17,0000.09,24.4,02.1,0666.8,30.9
2020-04-28T02:09:00Z,00000380,00000600,0000.97,0000.21,0000.40,-000.05,0000.26,-000.17,0000.01,0000.06,0000.08,24.4,02.1,0666.7,30.9
2020-04-28T02:10:00Z,00000380,00000600,0000.82,0000.71,0000.60,0000.63,0000.25,-000.56,0000.17,0000.06,-000.04,24.4,02.1,0666.7,30.9
2020-04-28T02:11:00Z,00000380,00000600,-000.11,0000.52,0000.12,-000.18,-000.19,-000.03,0000.02,0000.18,0000.29,24.4,02.0,0666.7,30.9
2020-04-28T02:12:00Z,00000380,00000600,0001.19,0000.90,0000.13,0000.50,-000.03,-000.29,-000.01,-000.03,-000.16,24.4,02.0,0666.7,30.9
2020-04-28T02:13:00Z,00000380,00000600,0000.51,0000.23,0000.00,-000.20,0000.00,0000.37,0000.09,0000.05,0000.23,24.4,02.1,0666.7,30.9
2020-04-28T02:14:00Z,00000380,00000600,0000.50,0000.36,0000.33,0000.17,0000.44,0000.09,0000.18,0000.11,-000.10,24.4,02.0,0666.8,30.9
2020-04-28T02:15:00Z,00000380,00000600,-001.12,0001.04,0000.27,-000.13,0000.33,-000.04,-000.07,0000.00,-000.04,24.4,02.1,0666.8,30.9
2020-04-28T02:16:00Z,00000380,00000600,0000.77,0000.29,-000.32,-000.01,0000.08,-000.23,0000.28,0000.11,0000.12,24.4,02.1,0666.7,30.9
2020-04-28T02:17:00Z,00000380,00000600,0001.29,0000.55,0000.15,0000.05,0000.28,-000.28,-000.16,0000.01,0000.11,24.4,02.1,0666.7,30.9
2020-04-28T02:18:00Z,00000380,00000600,0001.32,0000.46,0000.07,0000.21,0000.09,-000.09,-000.05,0000.01,-000.16,24.4,02.1,0666.7,30.9
2020-04-28T02:19:00Z,00000380,00000600,0000.43,0000.67,0000.25,-000.23,0000.26,-000.30,0000.09,0000.04,0000.08,24.4,02.0,0666.7,30.9
2020-04-28T02:20:00Z,00000380,00000600,0000.79,0000.30,0000.51,0001.01,0000.58,-000.13,-000.00,0000.03,0000.06,24.4,02.1,0666.7,30.9
2020-04-28T02:21:00Z,00000380,00000600,0001.15,0000.10,0000.52,0000.07,0000.19,-000.23,0000.16,0000.04,0000.11,24.4,02.1,0666.7,30.9
2020-04-28T02:22:00Z,00000380,00000600,0000.76,-000.02,0000.04,-000.04,0000.53,-000.07,0000.03,0000.05,-000.07,24.4,02.0,0666.7,30.9
2020-04-28T02:23:00Z,00000380,00000600,0001.25,0000.61,0000.25,-000.90,0000.29,-000.22,-000.07,-000.01,-000.02,24.4,02.0,0666.7,30.9
2020-04-28T02:24:00Z,00000380,00000600,0000.50,0000.33,0000.10,0000.15,-000.05,0000.03,0000.27,0000.25,0000.25,24.4,02.1,0666.7,30.9
2020-04-28T02:25:00Z,00000380,00000600,0001.06,0000.58,0000.22,0000.43,0000.04,-000.32,0000.03,-000.14,-000.08,24.4,02.1,0666.7,30.9
2020-04-28T02:26:00Z,00000380,00000600,0000.60,0000.11,0000.09,-000.07,0000.04,-000.53,-000.01,0000.22,0000.14,24.4,02.1,0666.7,30.9
2020-04-28T02:27:00Z,00000380,00000600,0000.67,0000.90,0000.31,-000.39,0000.23,-000.44,-000.02,-000.03,-000.09,24.4,02.1,0666.7,30.9
2020-04-28T02:28:00Z,00000380,00000600,-000.24,-000.09,0000.13,-000.42,0000.39,-000.25,0000.11,-000.07,0000.08,24.4,02.1,0666.7,30.9
2020-04-28T02:29:00Z,00000380,00000600,-000.10,0000.52,0000.39,-000.58,0000.32,0000.00,0000.11,0000.08,0000.10,24.4,02.1,0666.6,30.9
2020-04-28T02:30:00Z,00000380,00000600,0000.07,0000.35,0000.11,0000.25,0000.16,-000.28,0000.06,0000.07,0000.03,24.4,02.1,0666.7,30.9
2020-04-28T02:31:00Z,00000380,00000600,0001.16,-000.06,-000.13,0000.61,0000.27,-000.03,-000.07,0000.02,-000.01,24.4,02.1,0666.7,30.9
2020-04-28T02:32:00Z,00000380,00000600,0001.31,0000.38,0000.21,-000.71,0000.28,0000.16,0000.09,0000.15,0000.02,24.4,02.1,0666.7,30.9
2020-04-28T02:33:00Z,00000380,00000600,0000.46,-000.14,-000.21,0000.02,-000.11,-000.42,0000.12,-000.08,-000.07,24.4,02.1,0666.7,30.9
2020-04-28T02:34:00Z,00000380,00000600,0000.57,-000.12,0000.28,-000.48,0000.40,-000.13,-000.01,0000.13,0000.13,24.4,02.1,0666.6,30.9
2020-04-28T02:35:00Z,00000380,00000600,-000.09,0000.04,-000.21,0000.94,-000.11,-000.64,-000.04,-000.08,0000.13,24.4,02.1,0666.6,30.9
2020-04-28T02:36:00Z,00000380,00000600,0000.34,0000.11,0000.28,0000.35,0000.89,0000.49,0000.20,0000.26,0000.09,24.4,02.2,0666.6,30.9
2020-04-28T02:37:00Z,00000380,00000600,0000.21,0000.16,0000.44,0000.13,0000.23,-000.26,0000.20,0000.02,0000.02,24.4,02.2,0666.6,30.9
2020-04-28T02:38:00Z,00000380,00000600,0000.44,0000.04,-000.19,0000.03,0000.43,-000.26,-000.08,0000.23,0000.07,24.4,02.2,0666.6,30.9
2020-04-28T02:39:00Z,00000380,00000600,0000.36,-000.03,0000.77,-000.31,0000.28,-000.09,0000.07,-000.18,0000.05,24.4,02.3,0666.6,30.9
2020-04-28T02:40:00Z,00000380,00000600,0000.93,0000.51,-000.04,0000.53,0000.53,-000.30,0000.14,0000.24,-000.12,24.4,02.2,0666.6,30.9
2020-04-28T02:41:00Z,00000380,00000600,0000.81,0000.29,0000.16,0000.39,0000.50,-000.29,-000.07,-000.17,0000.19,24.4,02.3,0666.6,30.9
2020-04-28T02:42:00Z,00000380,00000600,0001.02,0000.71,0000.14,-000.06,0000.42,0000.43,-000.03,0000.06,-000.03,24.4,02.2,0666.6,30.9
2020-04-28T02:43:00Z,00000380,00000600,0000.33,0000.05,-000.18,-000.25,0000.60,-000.22,0000.03,0000.14,-000.01,24.4,02.3,0666.6,30.9
2020-04-28T02:44:00Z,00000380,00000600,0000.38,-000.29,-000.16,-000.19,0000.15,0000.04,0000.04,0000.03,-000.00,24.4,02.3,0666.6,30.9
2020-04-28T02:45:00Z,00000380,00000600,0001.17,-000.21,0000.36,-000.16,-000.00,0000.03,0000.26,-000.00,0000.21,24.4,02.3,0666.6,30.9
2020-04-28T02:46:00Z,00000380,00000600,0000.53,0000.54,-000.02,0000.07,0000.04,-000.48,-000.15,-000.09,0000.00,24.4,02.3,0666.6,30.9
2020-04-28T02:47:00Z,00000380,00000600,0001.07,0000.48,0000.73,0000.32,0000.52,-000.18,0000.09,0000.15,0000.03,24.4,02.3,0666.6,30.9
2020-04-28T02:48:00Z,00000380,00000600,-000.39,0000.25,0000.31,0000.14,0000.03,-000.25,0000.04,0000.18,0000.08,24.4,02.3,0666.6,30.9
2020-04-28T02:49:00Z,00000380,00000600,0000.56,0000.52,0000.48,-000.09,0000.07,0000.07,-000.06,-000.16,0000.03,24.4,02.3,0666.5,30.9
2020-04-28T02:50:00Z,00000380,00000600,0001.26,0000.73,0000.14,-000.46,0000.19,-000.44,0000.13,0000.20,-000.03,24.4,02.3,0666.5,30.9
2020-04-28T02:51:00Z,00000380,00000600,0001.14,0000.07,-000.01,0000.01,0000.29,-000.32,-000.00,0000.07,0000.01,24.4,02.3,0666.5,30.9
2020-04-28T02:52:00Z,00000380,00000600,0000.03,0000.96,0000.23,-000.04,0000.05,0000.13,-000.03,-000.08,0000.04,24.4,02.4,0666.5,30.9
2020-04-28T02:53:00Z,00000380,00000600,0001.23,0000.14,0000.05,0000.33,0000.22,-000.39,0000.16,-000.00,-000.01,24.4,02.3,0666.5,30.9
2020-04-28T02:54:00Z,00000380,00000600,0000.76,0000.85,0000.19,0000.19,-000.10,-000.42,-000.19,0000.00,-000.10,24.4,02.3,0666.5,30.9
2020-04-28T02:55:00Z,00000380,00000600,0000.95,0000.84,0000.08,-000.49,0000.13,0000.10,-000.05,-000.05,0000.05,24.4,02.2,0666.5,30.9
2020-04-28T02:56:00Z,00000380,00000600,0000.27,0000.71,0000.16,-000.14,0000.47,-000.33,0000.13,-000.10,-000.02,24.4,02.2,0666.5,30.9
2020-04-28T02:57:00Z,00000380,40000600,,,,,,,,,,24.4,02.4,0666.6,30.9
2020-04-28T02:58:00Z,00000380,60000600,,,,,,,,,,24.5,02.1,0665.5,30.9
2020-04-28T02:59:00Z,00000380,20000600,,,,,,,,,,24.6,02.1,0665.5,30.9
2020-04-28T03:00:00Z,00000380,20000600,,,,,,,,,,24.6,02.0,0665.5,30.9
2020-04-28T03:01:00Z,00000380,20000600,,,,,,,,,,24.6,01.9,0665.5,30.9
2020-04-28T03:02:00Z,00000380,20000600,,,,,,,,,,24.7,01.9,0665.5,30.9
2020-04-28T03:03:00Z,00000380,60000600,,,,,,,,,,24.7,01.9,0665.5,30.9
2020-04-28T03:04:00Z,00000380,40000600,0000.69,0000.34,0000.06,-000.03,0000.45,0000.11,0000.14,0000.29,-000.12,24.5,01.9,0666.5,30.9
2020-04-28T03:05:00Z,00000380,00000600,0000.47,0000.14,0000.84,-000.64,0000.07,0000.24,-000.03,-000.10,0000.07,24.5,01.9,0666.6,30.9
2020-04-28T03:06:00Z,00000380,00000600,-000.15,-000.08,0000.00,-000.26,0000.06,-000.01,-000.00,0000.13,-000.05,24.4,01.9,0666.5,30.9
2020-04-28T03:07:00Z,00000380,00000600,0000.78,0000.01,0000.71,0000.47,0000.37,0000.07,0000.08,-000.27,0000.13,24.4,01.9,0666.5,30.9
2020-04-28T03:08:00Z,00000380,00000600,0000.34,0000.72,0000.36,0000.42,0000.30,0000.33,0000.07,0000.14,0000.08,24.4,01.9,0666.5,30.9
2020-04-28T03:09:00Z,00000380,00000600,0000.73,0000.31,0000.70,0000.41,-000.09,0000.15,0000.02,0000.24,-000.09,24.4,01.9,0666.5,30.9
2020-04-28T03:10:00Z,00000380,00000600,0000.41,0000.09,0000.19,-000.11,0000.03,0000.18,-000.11,0000.10,0000.16,24.4,01.9,0666.5,30.9